Lakeville, MN

9:38 AM CDT on October 01, 2016 (GMT -0500)
Airlake

Weather History for KLVN - February, 2014

Change the Weather History Date:

Saturday, February 22, 2014

  Actual Average Record
Temperature  
Mean Temperature 6 °F -  
Max Temperature 12 °F 33 °F 48 °F (1961)
Min Temperature 1 °F 16 °F -14 °F (1952)
Degree Days  
Heating Degree Days 58    
Moisture  
Dew Point 1 °F    
Average Humidity 76    
Maximum Humidity 85    
Minimum Humidity 67    
Precipitation  
Precipitation 0.00 in - - ()
Sea Level Pressure  
Sea Level Pressure 29.97 in    
Wind  
Wind Speed 12 mph (West)    
Max Wind Speed 17 mph    
Max Gust Speed 24 mph    
Visibility 10 miles    
Events      
Averages and records for this station are not official NWS values.
T = Trace of Precipitation, MM = Missing Value Source: NWS Daily Summary

Daily Weather History Graph

Daily Weather History Graph

Search for Another Location

Airport or City:

Trip Planner

Search our weather history database for the weather conditions in past years. The results will help you decide how hot, cold, wet, or windy it might be!

Date:

Astronomy

Feb. 22, 2014 Rise Set
Actual Time 7:02 AM CST 5:51 PM CST
Civil Twilight 6:32 AM CST 6:20 PM CST
Nautical Twilight 5:58 AM CST 6:54 PM CST
Astronomical Twilight 5:25 AM CST 7:28 PM CST
Moon 1:03 AM CST (2/22) 10:56 AM CST (2/22)
Length of Visible Light 11h 48m
Length of Day
10h 49m
Waning Gibbous, 50% of the Moon is Illuminated
Feb 22
Waning Gibbous
Mar 1
New
Mar 8
First Quarter
Mar 16
Full
Mar 23
Last Quarter

Hourly Weather History & Observations

Time (CST) Temp. Windchill Dew Point Humidity Pressure Visibility Wind Dir Wind Speed Gust Speed Precip Events Conditions
12:00 AM 8.6 °F -7.7 °F 3.2 °F 79% 29.77 in 10.0 mi West 13.8 mph - N/A   Clear
12:21 AM 8.6 °F -7.7 °F 3.2 °F 79% 29.78 in 10.0 mi West 13.8 mph 21.9 mph N/A   Clear
12:40 AM 8.6 °F -7.0 °F 3.2 °F 79% 29.79 in 10.0 mi West 12.7 mph - N/A   Clear
1:01 AM 8.6 °F -7.0 °F 3.2 °F 79% 29.80 in 10.0 mi West 12.7 mph - N/A   Clear
1:20 AM 8.6 °F -8.3 °F 3.2 °F 79% 29.80 in 10.0 mi West 15.0 mph - N/A   Clear
1:40 AM 6.8 °F -10.0 °F 3.2 °F 85% 29.81 in 10.0 mi West 13.8 mph - N/A   Clear
2:01 AM 6.8 °F -8.6 °F 1.4 °F 79% 29.82 in 10.0 mi West 11.5 mph 18.4 mph N/A   Clear
2:20 AM 6.8 °F -7.8 °F 1.4 °F 79% 29.82 in 10.0 mi West 10.4 mph - N/A   Clear
2:41 AM 6.8 °F -6.9 °F 1.4 °F 79% 29.83 in 10.0 mi West 9.2 mph - N/A   Clear
3:00 AM 6.8 °F -6.9 °F 1.4 °F 79% 29.83 in 10.0 mi West 9.2 mph - N/A   Clear
3:20 AM 5.0 °F -9.1 °F 1.4 °F 85% 29.83 in 10.0 mi West 9.2 mph - N/A   Clear
3:41 AM 5.0 °F -8.1 °F -0.4 °F 78% 29.84 in 10.0 mi West 8.1 mph - N/A   Clear
4:00 AM 5.0 °F -10.8 °F -0.4 °F 78% 29.85 in 10.0 mi West 11.5 mph - N/A   Clear
4:21 AM 3.2 °F -12.2 °F -0.4 °F 85% 29.86 in 10.0 mi West 10.4 mph - N/A   Clear
4:40 AM 3.2 °F -10.3 °F -0.4 °F 85% 29.87 in 10.0 mi West 8.1 mph - N/A   Clear
5:00 AM 3.2 °F -9.1 °F -0.4 °F 85% 29.88 in 10.0 mi West 6.9 mph - N/A   Clear
5:21 AM 3.2 °F -10.3 °F -0.4 °F 85% 29.89 in 10.0 mi West 8.1 mph - N/A   Clear
5:40 AM 3.2 °F -10.3 °F -0.4 °F 85% 29.89 in 10.0 mi West 8.1 mph - N/A   Clear
6:01 AM 3.2 °F -7.8 °F -2.2 °F 78% 29.90 in 10.0 mi WSW 5.8 mph - N/A   Clear
6:20 AM 1.4 °F -8.3 °F -2.2 °F 85% 29.91 in 10.0 mi WSW 4.6 mph - N/A   Clear
6:40 AM 1.4 °F -13.5 °F -2.2 °F 85% 29.93 in 10.0 mi WSW 9.2 mph - N/A   Clear
7:01 AM 1.4 °F -13.5 °F -2.2 °F 85% 29.93 in 10.0 mi West 9.2 mph - N/A   Clear
7:20 AM 1.4 °F -13.5 °F -2.2 °F 85% 29.94 in 10.0 mi WSW 9.2 mph - N/A   Clear
7:41 AM 3.2 °F -11.3 °F -2.2 °F 78% 29.95 in 10.0 mi West 9.2 mph - N/A   Clear
8:00 AM 3.2 °F -10.3 °F -2.2 °F 78% 29.95 in 10.0 mi West 8.1 mph - N/A   Clear
8:20 AM 3.2 °F -9.1 °F -2.2 °F 78% 29.95 in 10.0 mi West 6.9 mph - N/A   Clear
8:41 AM 5.0 °F -9.1 °F -2.2 °F 72% 29.95 in 10.0 mi West 9.2 mph - N/A   Clear
9:00 AM 6.8 °F -6.9 °F -0.4 °F 72% 29.96 in 10.0 mi West 9.2 mph - N/A   Clear
9:21 AM 6.8 °F -5.9 °F -0.4 °F 72% 29.97 in 10.0 mi West 8.1 mph - N/A   Clear
9:40 AM 8.6 °F -6.3 °F -0.4 °F 67% 29.98 in 10.0 mi West 11.5 mph - N/A   Clear
10:00 AM 8.6 °F -7.0 °F -0.4 °F 67% 29.98 in 10.0 mi West 12.7 mph - N/A   Clear
10:20 AM 8.6 °F -6.3 °F -0.4 °F 67% 29.99 in 10.0 mi West 11.5 mph - N/A   Clear
10:40 AM 10.4 °F -5.4 °F 1.4 °F 67% 29.98 in 10.0 mi West 13.8 mph - N/A   Clear
11:01 AM 10.4 °F -4.8 °F 1.4 °F 67% 29.98 in 10.0 mi West 12.7 mph - N/A   Clear
11:20 AM 10.4 °F -3.3 °F 1.4 °F 67% 29.99 in 10.0 mi West 10.4 mph 17.3 mph N/A   Clear
11:41 AM 10.4 °F -3.3 °F 1.4 °F 67% 29.98 in 10.0 mi West 10.4 mph - N/A   Clear
12:00 PM 12.2 °F -1.8 °F 3.2 °F 67% 29.98 in 10.0 mi West 11.5 mph - N/A   Clear
12:20 PM 12.2 °F -2.5 °F 3.2 °F 67% 29.98 in 10.0 mi West 12.7 mph 16.1 mph N/A   Clear
12:41 PM 12.2 °F -1.8 °F 3.2 °F 67% 29.99 in 10.0 mi West 11.5 mph - N/A   Clear
1:00 PM 12.2 °F -3.7 °F 3.2 °F 67% 29.98 in 10.0 mi West 15.0 mph 24.2 mph N/A   Clear
1:21 PM 10.4 °F -6.6 °F 3.2 °F 73% 29.98 in 10.0 mi West 16.1 mph - N/A   Clear
1:40 PM 10.4 °F -7.2 °F 3.2 °F 73% 29.99 in 10.0 mi West 17.3 mph 23.0 mph N/A   Clear
2:00 PM 10.4 °F -6.0 °F 3.2 °F 73% 29.99 in 10.0 mi West 15.0 mph - N/A   Clear
2:21 PM 10.4 °F -6.6 °F 3.2 °F 73% 29.99 in 10.0 mi West 16.1 mph - N/A   Clear
2:40 PM 10.4 °F -6.6 °F 1.4 °F 67% 30.00 in 10.0 mi West 16.1 mph - N/A   Clear
3:01 PM 10.4 °F -6.6 °F 3.2 °F 73% 30.00 in 10.0 mi West 16.1 mph - N/A   Clear
3:20 PM 10.4 °F -5.4 °F 3.2 °F 73% 30.00 in 10.0 mi West 13.8 mph 20.7 mph N/A   Clear
3:40 PM 10.4 °F -6.0 °F 3.2 °F 73% 30.00 in 10.0 mi West 15.0 mph 20.7 mph N/A   Clear
4:00 PM 10.4 °F -2.4 °F 3.2 °F 73% 30.01 in 10.0 mi West 9.2 mph - N/A   Clear
4:20 PM 10.4 °F -6.0 °F 3.2 °F 73% 30.01 in 10.0 mi West 15.0 mph 21.9 mph N/A   Clear
4:41 PM 10.4 °F -3.3 °F 3.2 °F 73% 30.01 in 10.0 mi West 10.4 mph 17.3 mph N/A   Clear
5:00 PM 10.4 °F -4.8 °F 3.2 °F 73% 30.02 in 10.0 mi West 12.7 mph 21.9 mph N/A   Clear
5:20 PM 10.4 °F -4.8 °F 3.2 °F 73% 30.02 in 10.0 mi West 12.7 mph - N/A   Clear
5:40 PM 10.4 °F -6.0 °F 3.2 °F 73% 30.02 in 10.0 mi West 15.0 mph - N/A   Clear
6:00 PM 10.4 °F -3.3 °F 3.2 °F 73% 30.03 in 10.0 mi West 10.4 mph - N/A   Clear
6:20 PM 8.6 °F -6.3 °F 3.2 °F 79% 30.03 in 10.0 mi West 11.5 mph - N/A   Clear
6:40 PM 8.6 °F -7.0 °F 3.2 °F 79% 30.04 in 10.0 mi West 12.7 mph - N/A   Clear
7:00 PM 8.6 °F -7.7 °F 3.2 °F 79% 30.05 in 10.0 mi West 13.8 mph - N/A   Clear
7:20 PM 8.6 °F -8.9 °F 3.2 °F 79% 30.06 in 10.0 mi West 16.1 mph - N/A   Clear
7:41 PM 8.6 °F -8.3 °F 3.2 °F 79% 30.06 in 10.0 mi West 15.0 mph - N/A   Clear
8:00 PM 8.6 °F -9.5 °F 3.2 °F 79% 30.06 in 10.0 mi WNW 17.3 mph 24.2 mph N/A   Clear
8:21 PM 8.6 °F -8.9 °F 3.2 °F 79% 30.07 in 10.0 mi West 16.1 mph 21.9 mph N/A   Clear
8:40 PM 8.6 °F -7.0 °F 1.4 °F 73% 30.08 in 10.0 mi WNW 12.7 mph - N/A   Clear
9:00 PM 8.6 °F -8.9 °F 1.4 °F 73% 30.08 in 10.0 mi WNW 16.1 mph 20.7 mph N/A   Clear
9:20 PM 8.6 °F -9.5 °F 1.4 °F 73% 30.09 in 10.0 mi West 17.3 mph 20.7 mph N/A   Clear
9:40 PM 8.6 °F -7.0 °F 1.4 °F 73% 30.09 in 10.0 mi WNW 12.7 mph - N/A   Clear
10:01 PM 6.8 °F -6.9 °F 1.4 °F 79% 30.10 in 10.0 mi West 9.2 mph - N/A   Clear
10:20 PM 6.8 °F -6.9 °F 1.4 °F 79% 30.11 in 10.0 mi West 9.2 mph - N/A   Clear
10:41 PM 6.8 °F -10.0 °F 1.4 °F 79% 30.11 in 10.0 mi WNW 13.8 mph 18.4 mph N/A   Clear
11:00 PM 6.8 °F -10.7 °F 1.4 °F 79% 30.11 in 10.0 mi WNW 15.0 mph 21.9 mph N/A   Clear
11:20 PM 6.8 °F -11.3 °F 1.4 °F 79% 30.12 in 10.0 mi West 16.1 mph - N/A   Clear
11:41 PM 6.8 °F -11.3 °F -0.4 °F 72% 30.12 in 10.0 mi WNW 16.1 mph 23.0 mph N/A   Clear